Denver, CO

12:23 AM MDT on April 24, 2017 (GMT -0600)
Denver International

Weather History for KDEN - June, 2013

Change the Weather History Date:

Thursday, June 13, 2013

  Actual Average Record
Temperature  
Mean Temperature 74 °F 67 °F  
Max Temperature 94 °F 82 °F 99 °F (1994)
Min Temperature 53 °F 52 °F 35 °F (1947)
Degree Days  
Heating Degree Days 0 2  
Month to date heating degree days 29 42  
Since 1 June heating degree days 29 42  
Since 1 July heating degree days 6084 6038  
Cooling Degree Days 9 4  
Month to date cooling degree days 69 38  
Year to date cooling degree days 111 60  
Since 1 June cooling degree days 69 38  
Growing Degree Days 24 (Base 50)    
Moisture  
Dew Point 48 °F    
Average Humidity 59    
Maximum Humidity 93    
Minimum Humidity 24    
Precipitation  
Precipitation T in 0.07 in 0.68 in (2001)
Month to date precipitation 0.07 0.94  
Year to date precipitation 5.31 6.47  
Snow  
Snow 0.00 in - - ()
Month to date snowfall 0  
Since 1 June snowfall 0  
Since 1 July snowfall 78.4  
Snow Depth 0.00 in    
Sea Level Pressure  
Sea Level Pressure 29.87 in    
Wind  
Wind Speed 11 mph (NNE)    
Max Wind Speed 33 mph    
Max Gust Speed 43 mph    
Visibility 10 miles    
Events Rain , Thunderstorm    
T = Trace of Precipitation, MM = Missing Value Source: NWS Daily Summary

Daily Weather History Graph

Daily Weather History Graph

Search for Another Location

Airport or City:

Trip Planner

Search our weather history database for the weather conditions in past years. The results will help you decide how hot, cold, wet, or windy it might be!

Date:

Astronomy

Jun. 13, 2013 Rise Set
Actual Time 5:29 AM MDT 8:28 PM MDT
Civil Twilight 4:57 AM MDT 9:00 PM MDT
Nautical Twilight 4:15 AM MDT 9:42 PM MDT
Astronomical Twilight 3:27 AM MDT 10:30 PM MDT
Moon 10:08 AM MDT (6/13) 11:36 PM MDT (6/13)
Length of Visible Light 16h 03m
Length of Day
14h 58m
Waxing Crescent, 22% of the Moon is Illuminated
Jun 13
Waxing Crescent
Jun 16
First Quarter
Jun 23
Full
Jun 29
Last Quarter
Jul 8
New

Hourly Weather History & Observations

Time (MDT) Temp. Heat Index Dew Point Humidity Pressure Visibility Wind Dir Wind Speed Gust Speed Precip Events Conditions
12:53 AM 66.9 °F - 46.9 °F 49% 29.90 in 10.0 mi ENE 9.2 mph - N/A   Mostly Cloudy
1:53 AM 63.0 °F - 52.0 °F 67% 29.89 in 10.0 mi East 11.5 mph - N/A   Mostly Cloudy
2:53 AM 60.1 °F - 52.0 °F 75% 29.88 in 10.0 mi East 11.5 mph - N/A   Mostly Cloudy
3:53 AM 57.0 °F - 51.1 °F 81% 29.89 in 10.0 mi NNE 9.2 mph - N/A   Scattered Clouds
4:53 AM 55.0 °F - 51.1 °F 86% 29.90 in 10.0 mi ENE 4.6 mph - N/A   Scattered Clouds
5:53 AM 54.0 °F - 51.1 °F 90% 29.92 in 10.0 mi WSW 8.1 mph - N/A   Mostly Cloudy
6:53 AM 55.9 °F - 52.0 °F 87% 29.93 in 8.0 mi WSW 8.1 mph - N/A   Mostly Cloudy
7:00 AM 55.4 °F - 51.8 °F 88% 30.17 in 7.0 mi WSW 6.9 mph - N/A   Mostly Cloudy
7:53 AM 57.9 °F - 52.0 °F 81% 29.93 in 8.0 mi WNW 9.2 mph - N/A   Mostly Cloudy
8:53 AM 60.1 °F - 53.1 °F 78% 29.95 in 8.0 mi West 9.2 mph - N/A   Overcast
9:43 AM 64.4 °F - 53.6 °F 68% 30.16 in 9.0 mi NW 5.8 mph - N/A   Mostly Cloudy
9:53 AM 64.9 °F - 53.1 °F 65% 29.92 in 10.0 mi Variable 4.6 mph - N/A   Mostly Cloudy
10:53 AM 69.1 °F - 53.1 °F 57% 29.90 in 9.0 mi Calm Calm - N/A   Mostly Cloudy
11:53 AM 75.0 °F - 53.1 °F 46% 29.86 in 10.0 mi NE 5.8 mph - N/A   Mostly Cloudy
12:53 PM 84.0 °F 82.6 °F 54.0 °F 35% 29.82 in 10.0 mi NE 6.9 mph 17.3 mph N/A   Mostly Cloudy
1:53 PM 91.0 °F - 51.1 °F 25% 29.77 in 10.0 mi ENE 13.8 mph 20.7 mph N/A   Mostly Cloudy
2:53 PM 90.0 °F 87.5 °F 53.1 °F 28% 29.76 in 10.0 mi NNE 17.3 mph 26.5 mph N/A   Mostly Cloudy
2:56 PM 89.6 °F 87.3 °F 53.6 °F 29% 30.01 in 10.0 mi NE 13.8 mph 26.5 mph N/A   Mostly Cloudy
3:21 PM 89.6 °F - 50.0 °F 26% 29.99 in 10.0 mi NE 13.8 mph - N/A Thunderstorm Thunderstorm
3:53 PM 93.0 °F - 46.0 °F 20% 29.72 in 10.0 mi ENE 23.0 mph 26.5 mph N/A Thunderstorm Thunderstorm
4:15 PM 89.6 °F - 41.0 °F 18% 29.96 in 10.0 mi NE 17.3 mph 26.5 mph N/A   Mostly Cloudy
4:30 PM 89.6 °F - 39.2 °F 17% 29.98 in 10.0 mi North 12.7 mph - N/A   Mostly Cloudy
4:53 PM 88.0 °F - 46.0 °F 23% 29.74 in 10.0 mi NW 16.1 mph 20.7 mph N/A   Mostly Cloudy
5:53 PM 86.0 °F - 46.0 °F 25% 29.72 in 10.0 mi SSE 15.0 mph - N/A   Mostly Cloudy
6:36 PM 84.2 °F - 42.8 °F 23% 29.96 in 9.0 mi West 17.3 mph 23.0 mph N/A Thunderstorm Thunderstorm
6:44 PM 82.4 °F - 42.8 °F 25% 29.98 in 6.0 mi WNW 32.2 mph 42.6 mph 0.00 in Rain , Thunderstorm Light Thunderstorms and Rain
6:53 PM 82.0 °F - 43.0 °F 25% 29.75 in 8.0 mi NW 13.8 mph 41.4 mph 0.00 in Rain , Thunderstorm Light Thunderstorms and Rain
7:00 PM 84.2 °F - 39.2 °F 20% 29.96 in 10.0 mi NNE 8.1 mph - 0.00 in Rain , Thunderstorm Light Thunderstorms and Rain
7:04 PM 84.2 °F - 41.0 °F 22% 29.95 in 10.0 mi North 10.4 mph - 0.00 in   Mostly Cloudy
7:53 PM 80.1 °F - 42.1 °F 26% 29.75 in 10.0 mi NNE 4.6 mph - 0.00 in   Mostly Cloudy
8:53 PM 75.0 °F - 46.0 °F 36% 29.77 in 10.0 mi East 15.0 mph - N/A   Mostly Cloudy
9:53 PM 69.1 °F - 48.9 °F 49% 29.78 in 10.0 mi East 8.1 mph - N/A   Mostly Cloudy
10:53 PM 75.9 °F - 39.0 °F 26% 29.74 in 10.0 mi SSW 9.2 mph - N/A   Mostly Cloudy
11:53 PM 75.0 °F - 37.9 °F 26% 29.75 in 10.0 mi SSW 12.7 mph - N/A   Scattered Clouds